Regional Weather Roundup
Issued by NWS

Home | Current Version | Previous Version | Graphics & Text | Print | Product List | Glossary On
Versions: 1 2 3 4 5 6 7 8 9 10 11 12 13 14 15 16 17 18 19 20 21 22 23 24 25 26 27
000
ASUS45 KBOU 081007
RWRCO

WEATHER ROUNDUP FOR COLORADO
NATIONAL WEATHER SERVICE DENVER/BOULDER CO
300 AM MST THU DEC 08 2016

NOTE: "FAIR" INDICATES FEW OR NO CLOUDS BELOW 12000 FEET WITH NO
SIGNIFICANT WEATHER AND/OR OBSTRUCTIONS TO VISIBILITY.

COZ001>005-013-030-031-081100-
...NORTHWEST COLORADO...

CITY           SKY/WX    TMP DP  RH WIND       PRES   REMARKS
CRAIG          FAIR      -8 -14  74 SW3       30.30F
HAYDEN         FAIR      -4 -13  65 E12       30.26F WCI -22
MEEKER         FAIR     -10 -15  78 NW3       30.28S
MOUNT WERNER   NOT AVBL
STEAMBOAT SPGS   N/A    -11 -16  80 CALM      30.27S VSB 1
WALDEN           N/A    -18 -26  69 E3        30.20F
$$

COZ006>008-011-081100-
...WEST CENTRAL VALLEYS...

CITY           SKY/WX    TMP DP  RH WIND       PRES   REMARKS
GRAND JUNCTION FAIR      15   7  70 SE12      30.33R WCI   2
MONTROSE       FAIR       9   3  77 SE5       30.33S WCI   1
EAGLE          FAIR      -6 -11  79 SE3       30.36S
RIFLE          FAIR       4  -1  80 CALM      30.34S
DELTA          FAIR      14   4  63 SE3       30.34F
NUCLA          FAIR      10   1  67 SE5       30.31S WCI   2
$$

COZ017>023-064>068-081100-
...SOUTHWEST COLORADO...

CITY           SKY/WX    TMP DP  RH WIND       PRES   REMARKS
DURANGO        FAIR       5  -2  72 E5        30.25F WCI  -4
CORTEZ         FAIR       9   3  77 E5        30.27S WCI   1
PAGOSA SPRINGS FAIR       5  -2  71 CALM      30.25S
TELLURIDE      CLOUDY     8  -7  51 SE9       30.16F WCI  -6
WOLF CREEK PAS FAIR      -2  -8  78 SW17G23   30.12S WCI -24
$$

COZ009-010-012-014-032>034-037-058>063-081100-
...CENTRAL COLORADO...

CITY           SKY/WX    TMP DP  RH WIND       PRES   REMARKS
ASPEN          FAIR      -7 -12  79 SW7       30.21S WCI -21
BUENA VISTA    CLOUDY     1  -6  71 W7        30.23F WCI -11
COPPER MTN     FAIR       0 -17  46 MISG      29.99F
BERTHOUD PASS  FAIR     -13 -24  58 MISG      29.93R
COTTONWOOD PAS HAZE       1  -6  71 CALM      30.10F VSB 1/2
GUNNISON       FAIR      -6 -13  71 CALM      30.29S
KREMMLING      FOG      N/A N/A N/A CALM      30.31S VSB 1
LEADVILLE      FAIR     -12 -18  74 NE7       30.08F WCI -27
MONARCH PASS   FAIR      -2  -8  78 W26       30.13R WCI -28
SALIDA         CLOUDY     2  -3  77 SW5       30.34S WCI  -7
SUNLIGHT       FAIR     N/A N/A N/A S10       30.11F
WILKERSON PASS FAIR       0  -9  65 SW9G16    30.04F WCI -16
$$

COZ069>075-081100-
...SAN LUIS VALLEY/SANGRE DE CRISTO MOUNTAINS...

CITY           SKY/WX    TMP DP  RH WIND       PRES   REMARKS
ALAMOSA        FAIR      -1  -7  75 CALM      30.23R
LA VETA PASS   FAIR       5   1  85 NE20G26   30.09S WCI -15
SAGUACHE       FAIR       5  -6  61 NW13      30.23S WCI -12
$$

COZ035-036-038>040-081100-
...NORTHERN COLORADO FRONT RANGE...

CITY           SKY/WX    TMP DP  RH WIND       PRES   REMARKS
DENVER INTL AP FAIR      -3  -7  82 S8        30.38S WCI -18
DMNS CITY PARK   N/A      1  -3  84 E8G14     30.39F WCI -13
AURORA         PTCLDY    -2  -6  84 CALM      30.36F
FRONT RANGE AP FAIR      -6 -13  71 S6        30.38S WCI -18
ERIE MUNI ARPT CLOUDY    -3  -6  84 CALM      30.42S
BOULDER MUN AP CLOUDY     7   1  78 SW3       30.40S
CENTENNIAL     FAIR      -6 -10  83 CALM      30.34F
BROOMFIELD     LGT SNOW   9   3  78 W3        30.37S
FORT COLLINS   FAIR       0  -2  92 CALM      30.42S
LONGMONT       CLOUDY     7   2  83 CALM      30.44S
$$

COZ041-046-047-076>085-087-088-081100-
...PIKES PEAK/PALMER DIVIDE AND SOUTHERN FOOTHILLS...

CITY           SKY/WX    TMP DP  RH WIND       PRES   REMARKS
COLO. SPRINGS  LGT SNOW   7   3  84 E5        30.34S FOG     WCI  -2
A. F. ACADEMY  LGT SNOW   6   2  83 CALM      30.29F
SCHRIEVER AFB  NOT AVBL
ELLICOTT       LGT RAIN N/A N/A N/A W6          N/A
FALCON         LGT SNOW   6   3  88 SW8       30.29S WCI  -7
FORT CARSON    FLURRIES   5   1  85 W1        30.34S
LIMON          MOCLDY    -9 -12  87 N6        30.39F WCI -22
MONUMENT HILL  FAIR       0  -6  78 SW8       30.26F WCI -15
TRINIDAD       LGT SNOW  12   8  84 SE3       30.37S FOG
$$

COZ042>045-048>051-090-091-081100-
...NORTHEAST COLORADO...

CITY           SKY/WX    TMP DP  RH WIND       PRES   REMARKS
GREELEY ARPT   FAIR     -14 -19  79 CALM      30.47S
AKRON          FAIR      -5 -10  79 W10       30.44F WCI -23
BURLINGTON     FAIR      -2  -9  72 W12       30.49S WCI -20
WRAY           NOT AVBL
STERLING       FAIR     -13 -17  84 S5        30.50S WCI -25
HOLYOKE        FAIR       5  -6  61 W9        30.52R WCI  -9
FORT MORGAN    FAIR      -6 -12  76 NW7       30.47F WCI -21
$$

COZ086-089-092>099-081100-
...SOUTHEAST COLORADO...

CITY           SKY/WX    TMP DP  RH WIND       PRES   REMARKS
PUEBLO         FLURRIES  14   8  77 S6        30.44S WCI   5
LA JUNTA       FAIR      11   2  67 CALM      30.48S
LAMAR          FAIR       4  -1  80 SW5       30.51S WCI  -5
SPRINGFIELD      N/A     10   3  73 NW6       30.47R WCI   0
$$




USA.gov is the U.S. government's official web portal to all federal, state and local government web resources and services.